Simultaneous Nadir Overpasses (SNOs) Predictions

Prediction of SNOs between NOAA-15 and METOP-C Satellite Orbit:

Table of predicted SNOs for the next 14.0 days since TLE Epoch: 10/25/2020
Index Date (NOAA-15) Time (NOAA-15) Lat,Lon (NOAA-15) SZA (NOAA-15 ) Date (METOP-C) Time (METOP-C) Lat,Lon (METOP-C) SZA (METOP-C ) Distance(km) Time Diff (sec)
1 10/25/2020 17:10:32 -80.94, 139.09 84.54 10/25/2020 17:09:22 -80.95, 138.93 84.57 3.27 70
2 10/25/2020 18:01:06 80.95, -53.91 95.46 10/25/2020 18:00:02 80.95, -53.80 95.44 2.02 64
3 10/25/2020 18:51:35 -80.95, 113.61 84.53 10/25/2020 18:50:44 -80.95, 113.46 84.56 2.52 51
4 10/25/2020 19:42:08 80.95, -79.03 95.49 10/25/2020 19:41:23 80.96, -78.91 95.49 2.60 45
5 10/25/2020 20:32:38 -80.96, 88.13 84.52 10/25/2020 20:32:06 -80.94, 87.99 84.56 2.95 32
6 10/25/2020 21:23:11 80.96,-104.50 95.50 10/25/2020 21:22:45 80.96,-104.38 95.50 2.22 26
7 10/25/2020 22:13:40 -80.95, 63.01 84.49 10/25/2020 22:13:27 -80.95, 62.88 84.50 2.16 13
8 10/25/2020 23:04:13 80.95,-129.62 95.53 10/25/2020 23:04:06 80.97,-129.48 95.56 2.86 7
9 10/25/2020 23:54:43 -80.96, 37.53 84.48 10/25/2020 23:54:49 -80.95, 37.41 84.50 2.60 6
10 10/26/2020 00:45:16 80.96,-155.10 95.54 10/26/2020 00:45:28 80.96,-154.96 95.56 2.44 12
11 10/26/2020 01:35:45 -80.96, 12.41 84.44 10/26/2020 01:36:10 -80.96, 12.31 84.44 1.80 25
12 10/26/2020 02:26:17 80.95, 179.79 95.58 10/26/2020 02:26:48 80.97, 179.94 95.62 3.13 31
13 10/26/2020 03:16:47 -80.97, -13.07 84.43 10/26/2020 03:17:31 -80.95, -13.17 84.43 2.27 44
14 10/26/2020 04:07:20 80.96, 154.31 95.59 10/26/2020 04:08:10 80.96, 154.47 95.62 2.67 50
15 10/26/2020 04:57:49 -80.96, -38.19 84.40 10/26/2020 04:58:52 -80.96, -38.27 84.38 1.45 63
